Weather History for KEED - October, 2012

Change the Weather History Date:

Thursday, October 18, 2012

  Actual Average Record
Temperature  
Mean Temperature 80 °F -  
Max Temperature 91 °F 86 °F 100 °F (1991)
Min Temperature 70 °F 58 °F 48 °F (1971)
Cooling Degree Days 16    
Growing Degree Days 30 (Base 50)    
Moisture  
Dew Point 24 °F    
Average Humidity 14    
Maximum Humidity 27    
Minimum Humidity 7    
Precipitation  
Precipitation 0.00 in - - ()
Sea Level Pressure  
Sea Level Pressure 29.90 in    
Wind  
Wind Speed 8 mph (NNW)    
Max Wind Speed 18 mph    
Max Gust Speed 23 mph    
Visibility 10 miles    
Events      
Averages and records for this station are not official NWS values.
T = Trace of Precipitation, MM = Missing Value Source: NWS Daily Summary

Daily Weather History Graph

Daily Weather History Graph

Search for Another Location

Airport or City:

Trip Planner

Search our weather history database for the weather conditions in past years. The results will help you decide how hot, cold, wet, or windy it might be!

Date:

Astronomy

Oct. 18, 2012 Rise Set
Actual Time 6:47 AM PDT 5:59 PM PDT
Civil Twilight 6:21 AM PDT 6:24 PM PDT
Nautical Twilight 5:52 AM PDT 6:54 PM PDT
Astronomical Twilight 5:23 AM PDT 7:23 PM PDT
Moon 10:25 AM PDT (10/18) 8:46 PM PDT (10/18)
Length of Visible Light 12h 03m
Length of Day
11h 12m
Waxing Crescent, 15% of the Moon is Illuminated
Oct 18
Waxing Crescent
Oct 21
First Quarter
Oct 29
Full
Nov 6
Last Quarter
Nov 13
New

Hourly Weather History & Observations

Time (PDT) Temp. Dew Point Humidity Pressure Visibility Wind Dir Wind Speed Gust Speed Precip Events Conditions
12:56 AM 70.0 °F 34.0 °F 27% 29.86 in 10.0 mi NW 4.6 mph - N/A   Clear
1:56 AM 70.0 °F 30.9 °F 24% 29.88 in 10.0 mi West 9.2 mph - N/A   Clear
3:56 AM 71.1 °F 28.9 °F 21% 29.88 in 10.0 mi NW 8.1 mph - N/A   Clear
4:56 AM 71.1 °F 27.0 °F 19% 29.90 in 10.0 mi North 5.8 mph - N/A   Clear
5:56 AM 71.1 °F 27.0 °F 19% 29.92 in 10.0 mi NNW 6.9 mph - N/A   Clear
7:56 AM 73.9 °F 26.1 °F 17% 29.95 in 10.0 mi North 10.4 mph - N/A   Clear
9:56 AM 79.0 °F 28.0 °F 15% 29.98 in 10.0 mi North 9.2 mph - N/A   Clear
10:56 AM 84.0 °F 21.9 °F 10% 29.97 in 10.0 mi NE 17.3 mph 23.0 mph N/A   Clear
11:56 AM 86.0 °F 19.0 °F 8% 29.96 in 10.0 mi NNE 18.4 mph - N/A   Clear
12:56 PM 87.1 °F 19.0 °F 8% 29.93 in 10.0 mi NNE 15.0 mph 21.9 mph N/A   Clear
1:56 PM 90.0 °F 19.9 °F 8% 29.90 in 10.0 mi NE 13.8 mph - N/A   Clear
3:56 PM 91.0 °F 19.0 °F 7% 29.87 in 10.0 mi NE 10.4 mph - N/A   Clear
4:56 PM 90.0 °F 19.0 °F 7% 29.86 in 10.0 mi NNE 8.1 mph - N/A   Clear
5:56 PM 84.9 °F 23.0 °F 10% 29.86 in 10.0 mi WNW 3.5 mph - N/A   Clear
6:56 PM 82.9 °F 21.0 °F 10% 29.87 in 10.0 mi NW 3.5 mph - N/A   Clear
7:56 PM 75.9 °F 25.0 °F 15% 29.88 in 10.0 mi West 4.6 mph - N/A   Clear
8:56 PM 73.0 °F 26.1 °F 17% 29.87 in 10.0 mi WNW 6.9 mph - N/A   Clear
10:56 PM 70.0 °F 23.0 °F 17% 29.88 in 10.0 mi West 9.2 mph - N/A   Clear
11:56 PM 70.0 °F 21.9 °F 16% 29.88 in 10.0 mi Calm Calm - N/A   Clear